GW4987 Weather Reports


time (UTC)temp
F
wind
direction
speed
knots
gust
knots
rain 1hr
in
rain 24hr
in
rain mn
in
humidity
%
barometer
mb
20260509222546 80 260 5.2 17.4 0.00 0.00 0.00 16 1017.5
20260509222046 82 257 7.0 7.8 0.00 0.00 0.00 15 1017.7
20260509221546 81 225 7.0 14.8 0.00 0.00 0.00 16 1017.8
20260509221047 80 238 6.1 19.1 0.00 0.00 0.00 16 1017.9
20260509220546 80 204 17.4 19.1 0.00 0.00 0.00 15 1018.0
20260509220047 81 226 7.8 17.4 0.00 0.00 0.00 15 1017.9
20260509214047 81 269 8.7 13.9 0.00 0.00 0.00 15 1018.1
20260509213547 80 222 9.6 21.7 0.00 0.00 0.00 16 1018.2
20260509213047 82 261 15.6 19.1 0.00 0.00 0.00 15 1018.0
20260509212546 81 211 7.8 14.8 0.00 0.00 0.00 16 1018.2
20260509212007 82 202 7.8 15.6 0.00 0.00 0.00 16 1018.0
20260509211547 81 212 9.6 13.0 0.00 0.00 0.00 15 1018.2
20260509211047 80 320 7.0 17.4 0.00 0.00 0.00 15 1018.1
20260509210507 81 275 13.0 19.1 0.00 0.00 0.00 15 1018.2
20260509210007 80 235 8.7 12.2 0.00 0.00 0.00 16 1018.4
20260509205546 80 212 10.4 13.0 0.00 0.00 0.00 15 1018.3
20260509205008 80 275 13.0 14.8 0.00 0.00 0.00 16 1018.6
20260509204547 81 243 17.4 18.2 0.00 0.00 0.00 16 1018.5
20260509204047 80 193 4.3 13.0 0.00 0.00 0.00 16 1018.6
20260509203547 80 286 2.6 7.0 0.00 0.00 0.00 14 1018.7
20260509203007 80 275 5.2 13.9 0.00 0.00 0.00 15 1018.6
20260509202546 81 209 7.8 19.1 0.00 0.00 0.00 15 1018.6
20260509202047 82 302 6.1 13.9 0.00 0.00 0.00 15 1018.6
20260509201546 81 295 6.1 14.8 0.00 0.00 0.00 15 1018.6
20260509201007 79 268 7.0 16.5 0.00 0.00 0.00 14 1018.7
20260509200547 82 256 9.6 16.5 0.00 0.00 0.00 14 1018.8
20260509200046 80 156 5.2 17.4 0.00 0.00 0.00 15 1018.7
20260509195546 81 244 10.4 17.4 0.00 0.00 0.00 15 1018.8
20260509195047 82 252 12.2 20.9 0.00 0.00 0.00 14 1018.9
20260509193047 80 240 6.1 13.0 0.00 0.00 0.00 14 1018.9
20260509192508 79 261 5.2 17.4 0.00 0.00 0.00 16 1018.9
20260509190546 79 277 8.7 15.6 0.00 0.00 0.00 16 1019.0
20260509190046 80 246 8.7 10.4 0.00 0.00 0.00 15 1019.3
20260509185547 80 284 4.3 9.6 0.00 0.00 0.00 15 1019.0
20260509185007 82 269 6.1 10.4 0.00 0.00 0.00 15 1019.3
20260509184546 80 197 7.8 17.4 0.00 0.00 0.00 16 1019.2
20260509184047 80 211 12.2 13.0 0.00 0.00 0.00 15 1019.2
20260509182047 81 193 6.1 20.0 0.00 0.00 0.00 15 1019.4
20260509181547 80 300 13.0 21.7 0.00 0.00 0.00 15 1019.3
20260509181047 79 267 12.2 18.2 0.00 0.00 0.00 16 1019.4
20260509175046 79 307 7.0 8.7 0.00 0.00 0.00 16 1019.4
20260509174509 79 269 10.4 13.9 0.00 0.00 0.00 16 1019.4
20260509174008 80 266 8.7 9.6 0.00 0.00 0.00 16 1019.4
20260509173547 80 147 1.7 6.1 0.00 0.00 0.00 15 1019.6
20260509173008 79 219 7.0 14.8 0.00 0.00 0.00 15 1019.4
20260509171008 80 284 1.7 4.3 0.00 0.00 0.00 15 1019.3
20260509170546 79 318 7.8 8.7 0.00 0.00 0.00 15 1019.5
20260509170047 80 316 7.0 7.0 0.00 0.00 0.00 15 1019.4
20260509165508 80 307 10.4 13.0 0.00 0.00 0.00 15 1019.3
20260509165008 80 35 4.3 6.1 0.00 0.00 0.00 16 1019.5
20260509164547 80 19 4.3 7.0 0.00 0.00 0.00 17 1019.5
20260509164047 79 46 1.7 7.8 0.00 0.00 0.00 17 1019.4
20260509163527 79 301 4.3 6.1 0.00 0.00 0.00 17 1019.5
20260509163047 79 25 2.6 11.3 0.00 0.00 0.00 17 1019.3
20260509162547 79 334 4.3 7.0 0.00 0.00 0.00 17 1019.2
20260509162007 79 60 7.8 7.8 0.00 0.00 0.00 17 1019.3
20260509161546 78 23 3.5 7.0 0.00 0.00 0.00 17 1019.2
20260509161046 78 3 4.3 6.1 0.00 0.00 0.00 17 1019.4
20260509160546 79 353 2.6 5.2 0.00 0.00 0.00 17 1019.3
20260509160008 78 26 4.3 7.0 0.00 0.00 0.00 18 1019.4
20260509155547 78 34 3.5 6.1 0.00 0.00 0.00 19 1019.4
20260509155008 78 323 5.2 5.2 0.00 0.00 0.00 19 1019.3
20260509154546 78 346 3.5 7.8 0.00 0.00 0.00 19 1019.4
20260509154046 77 287 5.2 7.0 0.00 0.00 0.00 17 1019.2
20260509153547 79 318 0.0 4.3 0.00 0.00 0.00 17 1019.4
20260509153007 78 70 4.3 5.2 0.00 0.00 0.00 18 1019.2
20260509152546 78 19 2.6 4.3 0.00 0.00 0.00 18 1019.2
20260509152047 78 25 3.5 6.1 0.00 0.00 0.00 20 1019.3
20260509151507 76 63 2.6 4.3 0.00 0.00 0.00 19 1019.0
20260509151007 75 297 2.6 7.0 0.00 0.00 0.00 19 1019.2
20260509150547 75 301 3.5 5.2 0.00 0.00 0.00 18 1019.2
20260509150047 74 290 3.5 7.8 0.00 0.00 0.00 19 1019.3
20260509145547 74 269 3.5 7.0 0.00 0.00 0.00 19 1019.4
20260509145046 74 264 6.1 8.7 0.00 0.00 0.00 19 1019.2
20260509144547 74 241 3.5 8.7 0.00 0.00 0.00 20 1019.3
20260509144008 73 328 3.5 4.3 0.00 0.00 0.00 20 1019.3
20260509143547 73 271 4.3 5.2 0.00 0.00 0.00 21 1019.2
20260509143047 73 120 1.7 2.6 0.00 0.00 0.00 25 1019.2
20260509142508 74 86 2.6 3.5 0.00 0.00 0.00 25 1019.3
20260509142008 73 75 2.6 2.6 0.00 0.00 0.00 23 1019.0
20260509141547 72 136 1.7 2.6 0.00 0.00 0.00 26 1019.2
20260509141008 72 130 1.7 1.7 0.00 0.00 0.00 25 1018.9
20260509140546 71 103 2.6 2.6 0.00 0.00 0.00 24 1019.2
20260509140047 70 74 1.7 1.7 0.00 0.00 0.00 25 1019.0
20260509135546 69 102 1.7 1.7 0.00 0.00 0.00 27 1019.2
20260509135027 69 129 1.7 1.7 0.00 0.00 0.00 27 1019.0
20260509134546 68 156 0.0 2.6 0.00 0.00 0.00 27 1019.2
20260509134046 68 126 2.6 3.5 0.00 0.00 0.00 26 1019.0
20260509133547 67 319 0.0 2.6 0.00 0.00 0.00 24 1019.0
20260509133008 66 239 2.6 4.3 0.00 0.00 0.00 24 1018.9
20260509132547 66 276 3.5 5.2 0.00 0.00 0.00 24 1018.7
20260509132047 66 274 6.1 6.1 0.00 0.00 0.00 23 1018.7
20260509131547 66 262 3.5 6.1 0.00 0.00 0.00 23 1018.7
20260509131047 65 263 5.2 7.8 0.00 0.00 0.00 23 1018.5
20260509130547 64 258 7.0 7.8 0.00 0.00 0.00 24 1018.8
20260509130008 64 271 5.2 7.0 0.00 0.00 0.00 24 1018.4
20260509125546 64 250 4.3 7.0 0.00 0.00 0.00 24 1018.5
20260509125046 64 260 7.0 7.8 0.00 0.00 0.00 24 1018.5
20260509124508 64 262 5.2 6.1 0.00 0.00 0.00 24 1018.4
20260509124008 64 261 5.2 7.0 0.00 0.00 0.00 24 1018.4
20260509123547 63 268 6.1 7.8 0.00 0.00 0.00 24 1018.2
20260509123008 63 263 7.0 7.0 0.00 0.00 0.00 25 1018.3
20260509122546 63 262 5.2 7.8 0.00 0.00 0.00 25 1018.2
20260509122047 63 248 7.0 7.0 0.00 0.00 0.00 25 1018.3
20260509121547 63 256 4.3 7.8 0.00 0.00 0.00 25 1018.3
20260509121007 63 268 6.1 8.7 0.00 0.00 0.00 25 1018.0
20260509120547 63 260 7.0 7.0 0.00 0.00 0.00 25 1018.1
20260509120047 63 260 7.0 7.8 0.00 0.00 0.00 25 1018.0
20260509115508 63 267 5.2 8.7 0.00 0.00 0.00 25 1018.1
20260509115046 63 272 7.0 8.7 0.00 0.00 0.00 25 1018.2
20260509114546 64 255 5.2 8.7 0.00 0.00 0.00 25 1018.2
20260509114047 64 266 6.1 9.6 0.00 0.00 0.00 25 1018.1
20260509113546 63 261 7.0 8.7 0.00 0.00 0.00 25 1018.0
20260509113046 64 257 6.1 8.7 0.00 0.00 0.00 25 1018.1
20260509112547 63 263 5.2 9.6 0.00 0.00 0.00 25 1018.0
20260509112007 63 257 5.2 9.6 0.00 0.00 0.00 25 1018.0
20260509111547 63 265 5.2 8.7 0.00 0.00 0.00 25 1018.0
20260509111047 64 271 5.2 10.4 0.00 0.00 0.00 25 1018.0
20260509110507 63 256 7.0 7.8 0.00 0.00 0.00 25 1018.2
20260509110007 64 251 7.0 8.7 0.00 0.00 0.00 25 1018.2
20260509105547 64 264 8.7 8.7 0.00 0.00 0.00 25 1018.2
20260509105007 64 250 6.1 7.8 0.00 0.00 0.00 25 1018.0
20260509104547 64 260 7.0 7.8 0.00 0.00 0.00 25 1018.2
20260509104047 64 252 4.3 7.8 0.00 0.00 0.00 25 1018.2
20260509103547 64 264 5.2 8.7 0.00 0.00 0.00 25 1018.2
20260509103008 64 265 7.0 7.8 0.00 0.00 0.00 25 1018.1
20260509102546 64 257 7.8 10.4 0.00 0.00 0.00 24 1018.2
20260509102046 64 255 6.1 7.8 0.00 0.00 0.00 24 1018.2
20260509101547 64 255 6.1 8.7 0.00 0.00 0.00 24 1018.3
20260509101008 64 272 6.1 7.8 0.00 0.00 0.00 24 1018.6
20260509100546 64 272 7.0 7.8 0.00 0.00 0.00 24 1018.3
20260509100047 64 255 6.1 8.7 0.00 0.00 0.00 24 1018.4
20260509094008 64 264 7.0 8.7 0.00 0.00 0.00 24 1018.4
20260509093546 64 267 7.8 8.7 0.00 0.00 0.00 23 1018.5
20260509093047 64 259 6.1 7.8 0.00 0.00 0.00 24 1018.5
20260509092508 64 262 5.2 7.8 0.00 0.00 0.00 24 1018.5
20260509092008 64 265 6.1 8.7 0.00 0.00 0.00 24 1018.4
20260509091547 64 232 4.3 7.8 0.00 0.00 0.00 24 1018.5
20260509085546 65 257 5.2 10.4 0.00 0.00 0.00 23 1018.4
20260509085008 65 274 7.0 8.7 0.00 0.00 0.00 23 1018.5
20260509084547 65 263 6.1 9.6 0.00 0.00 0.00 23 1018.5
20260509084047 65 248 7.8 8.7 0.00 0.00 0.00 23 1018.4
20260509083547 65 272 7.0 7.8 0.00 0.00 0.00 23 1018.5
20260509083008 65 263 6.1 7.8 0.00 0.00 0.00 23 1018.7
20260509082546 65 267 6.1 8.7 0.00 0.00 0.00 23 1018.5
20260509082046 65 241 5.2 8.7 0.00 0.00 0.00 23 1018.5
20260509081546 65 241 7.0 11.3 0.00 0.00 0.00 23 1018.7
20260509081046 65 275 6.1 7.8 0.00 0.00 0.00 23 1018.6
20260509080546 66 259 4.3 9.6 0.00 0.00 0.00 22 1018.7
20260509074507 66 262 7.8 8.7 0.00 0.00 0.00 22 1018.9
20260509074008 66 268 6.1 9.6 0.00 0.00 0.00 22 1018.6
20260509073546 66 263 6.1 10.4 0.00 0.00 0.00 22 1018.7
20260509073007 66 264 5.2 8.7 0.00 0.00 0.00 22 1018.7
20260509072547 66 256 5.2 10.4 0.00 0.00 0.00 22 1018.9
20260509072046 66 262 5.2 7.8 0.00 0.00 0.00 22 1018.8
20260509071546 66 258 6.1 7.8 0.00 0.00 0.00 22 1018.9
20260509071047 66 264 4.3 7.8 0.00 0.00 0.00 22 1018.8
20260509070509 67 263 8.7 8.7 0.00 0.00 0.00 22 1018.8
20260509070009 66 261 6.1 7.8 0.00 0.00 0.00 22 1019.0
20260509065507 66 260 5.2 6.1 0.00 0.00 0.00 22 1018.8
20260509065007 66 267 4.3 6.1 0.00 0.00 0.00 22 1018.9
20260509064547 66 207 4.3 6.1 0.00 0.00 0.00 21 1018.9
20260509064047 67 260 4.3 6.1 0.00 0.00 0.00 21 1018.9
20260509063547 67 251 6.1 8.7 0.00 0.00 0.00 21 1018.8
20260509062008 67 275 7.0 9.6 0.00 0.00 0.00 21 1019.0
20260509061547 68 261 5.2 7.8 0.00 0.00 0.00 21 1019.0
20260509061047 68 268 4.3 8.7 0.00 0.00 0.00 21 1018.9
20260509060508 68 271 7.0 7.0 0.00 0.00 0.00 21 1018.8
20260509060047 68 256 6.1 9.6 0.00 0.00 0.00 21 1019.2
20260509055547 67 266 4.3 6.1 0.00 0.00 0.00 21 1018.9
20260509055008 67 238 4.3 7.0 0.00 0.00 0.00 21 1018.8
20260509054547 68 231 3.5 7.0 0.00 0.00 0.00 21 1018.8
20260509054047 68 248 6.1 7.8 0.00 0.00 0.00 21 1018.9
20260509053547 68 260 3.5 8.7 0.00 0.00 0.00 21 1019.2
20260509053008 68 257 6.1 8.7 0.00 0.00 0.00 21 1019.0
20260509052547 68 247 5.2 8.7 0.00 0.00 0.00 21 1019.0
20260509051007 68 248 3.5 9.6 0.00 0.00 0.00 21 1019.0
20260509050546 68 251 7.8 11.3 0.00 0.00 0.00 21 1018.7
20260509050047 68 237 2.6 7.8 0.00 0.00 0.00 21 1019.0
20260509045546 69 258 6.1 9.6 0.00 0.00 0.00 21 1019.0
20260509045046 69 225 4.3 10.4 0.00 0.00 0.00 21 1018.8
20260509044547 69 238 5.2 9.6 0.00 0.00 0.00 21 1018.8
20260509044008 69 248 3.5 12.2 0.00 0.00 0.00 21 1018.8
20260509043547 69 221 6.1 9.6 0.00 0.00 0.00 21 1018.8
20260509043047 69 209 3.5 7.8 0.00 0.00 0.00 21 1018.8
20260509042547 69 233 4.3 7.8 0.00 0.00 0.00 21 1018.7
20260509042008 69 217 5.2 8.7 0.00 0.00 0.00 21 1018.7
20260509041547 69 218 7.8 9.6 0.00 0.00 0.00 21 1018.8
20260509041008 69 249 8.7 11.3 0.00 0.00 0.00 21 1018.6
20260509040546 69 222 6.1 7.8 0.00 0.00 0.00 21 1018.6
20260509040047 69 246 6.1 8.7 0.00 0.00 0.00 21 1018.5
20260509035546 69 245 7.0 8.7 0.00 0.00 0.00 21 1018.4
20260509035008 69 215 7.8 11.3 0.00 0.00 0.00 21 1018.4
20260509034547 69 212 7.8 8.7 0.00 0.00 0.00 21 1018.4
20260509034047 69 261 6.1 13.0 0.00 0.00 0.00 21 1018.3
20260509033547 69 232 2.6 10.4 0.00 0.00 0.00 22 1018.4
20260509033008 69 225 4.3 11.3 0.00 0.00 0.00 22 1018.3
20260509032546 70 245 4.3 9.6 0.00 0.00 0.00 22 1018.2
20260509032047 70 232 8.7 9.6 0.00 0.00 0.00 22 1018.3
20260509030008 71 261 4.3 10.4 0.00 0.00 0.00 21 1018.2
20260509025546 71 231 9.6 11.3 0.00 0.00 0.00 21 1018.0
20260509025047 71 213 4.3 8.7 0.00 0.00 0.00 21 1018.0
20260509024508 71 228 7.8 11.3 0.00 0.00 0.00 21 1018.0
20260509024008 71 232 4.3 11.3 0.00 0.00 0.00 21 1017.7
20260509023546 71 222 4.3 11.3 0.00 0.00 0.00 21 1017.8
20260509023008 72 220 4.3 10.4 0.00 0.00 0.00 21 1017.8
20260509022546 72 242 8.7 11.3 0.00 0.00 0.00 21 1017.6
20260509022046 72 207 6.1 9.6 0.00 0.00 0.00 21 1017.7
20260509021547 73 233 5.2 8.7 0.00 0.00 0.00 21 1017.5
20260509021009 73 240 3.5 7.8 0.00 0.00 0.00 21 1017.7
20260509020547 73 217 4.3 11.3 0.00 0.00 0.00 20 1017.6
20260509020046 74 223 10.4 13.0 0.00 0.00 0.00 20 1017.5
20260509015509 75 228 7.0 12.2 0.00 0.00 0.00 19 1017.4
20260509015009 75 228 7.0 12.2 0.00 0.00 0.00 19 1017.5
20260509014546 75 228 7.0 12.2 0.00 0.00 0.00 19 1017.4
20260509014047 75 246 10.4 18.2 0.00 0.00 0.00 19 1017.4
20260509013547 76 225 7.8 18.2 0.00 0.00 0.00 19 1017.3
20260509013047 76 216 6.1 10.4 0.00 0.00 0.00 19 1017.5
20260509012547 76 241 6.1 13.9 0.00 0.00 0.00 19 1017.4
20260509012008 76 226 7.8 12.2 0.00 0.00 0.00 19 1017.3
20260509011547 77 199 9.6 15.6 0.00 0.00 0.00 19 1017.4
20260509011047 77 227 9.6 19.1 0.00 0.00 0.00 19 1017.5
20260509010508 77 266 13.0 13.9 0.00 0.00 0.00 19 1017.6
20260509010008 77 220 15.6 22.6 0.00 0.00 0.00 19 1017.4
20260509005547 77 207 9.6 16.5 0.00 0.00 0.00 19 1017.5
20260509005008 78 232 8.7 13.0 0.00 0.00 0.00 19 1017.6
20260509004547 78 265 13.9 16.5 0.00 0.00 0.00 19 1017.5
20260509004047 78 222 14.8 18.2 0.00 0.00 0.00 19 1017.3
20260509003546 79 212 7.8 10.4 0.00 0.00 0.00 18 1017.4
20260509003008 79 195 7.8 16.5 0.00 0.00 0.00 18 1017.6
20260509002547 78 253 11.3 14.8 0.00 0.00 0.00 18 1017.3
20260509002047 78 191 6.1 15.6 0.00 0.00 0.00 18 1017.3
20260509001509 79 217 11.3 15.6 0.00 0.00 0.00 18 1017.5
20260508235546 79 216 10.4 17.4 0.00 0.00 0.00 18 1017.3
20260508235046 79 192 9.6 17.4 0.00 0.00 0.00 18 1017.6
20260508234547 79 247 6.1 17.4 0.00 0.00 0.00 18 1017.6
20260508232508 78 219 6.1 20.9 0.00 0.00 0.00 18 1017.8
20260508232008 79 297 4.3 14.8 0.00 0.00 0.00 18 1017.6
20260508231547 79 209 7.8 12.2 0.00 0.00 0.00 18 1017.7
20260508225547 79 204 8.7 13.9 0.00 0.00 0.00 18 1017.8
20260508225009 80 252 5.2 16.5 0.00 0.00 0.00 17 1017.7
20260508224547 79 246 7.0 20.0 0.00 0.00 0.00 18 1017.7
20260508224047 79 248 11.3 20.9 0.00 0.00 0.00 18 1017.7
20260508223547 80 212 8.7 12.2 0.00 0.00 0.00 17 1017.7
20260508223008 78 254 7.8 17.4 0.00 0.00 0.00 18 1017.9